カタログに戻る

OPS 4682 DEB

運用中PO
NORAD 38417·DEBRIS·🇺🇸 United States

打ち上げ Apr 3, 1965 から Vandenberg Space Force Base

Loading…

次のパス (今後24時間)

TLE

最新Source: Space-Track

元期: Sep 13, 2026, 02:06 UTC

1 38417U 65027DW  26256.08791475  .00000527  00000-0  18074-2 0  9991
2 38417  90.2554  14.2975 0030902 270.1413  89.6166 12.96705041618073

AllMySatでOPS 4682 DEBをリアルタイム追跡

Download on the App Store